Showing default

SECOR 5 (EGRS 5), 1506

Orbit data source: Space-Track

SECOR 5 (EGRS 5), 1506 is an American payload satellite in LEO that was launched on Tue, 10 Aug 1965 UTC via an SCOUT B launch vehicle from the Wallops Island (WLPIS). Payload-class satellites include a variety of spacecraft equipped with specific instruments for various scientific and technological missions. These include communications satellites like Starlink; space stations such as the ISS; scientific satellites like the Hubble; Earth observation satellites from companies like Planet Labs, Umbra, and HawkEye 360; GPS; miniature CubeSats for education and research; and military/defense satellites.

Loading next visibility...
Identifier
1506, 1965-063A
Orbit
LEO
Country
Flag of USUS
Related business
Manufacturer
Cubic
Mission
Spacecraft
Bus & Motor
NRL 20", Unknown motor
Mass
18 kg wet, 18 kg dry
Launch date (UTC)
1965-08-10 (60 years ago)
Launch vehicle
SCOUT B
Launch site
Wallops Island (WLPIS)
Object type
Payload
Rocket body
Debris
Shape & HBR
Unknown
Radar Cross Section
Medium (>0.1 m² and <1 m²)

Expand to show TLE details & history
Last TLE update: 11 hours ago

TLE from 11 hours ago
0 SECOR 5 (EGRS 5)
1  1506U 65063A   25297.57995660  .00000007  00000-0  28118-3 0  9994
2  1506  69.2321 244.4659 0787465 350.1400 183.4315 11.78681227590485
Epoch: 2025-10-24T13:55Z
TLE epoch observation values (Epoch: 2025-10-24T13:55:08.250Z)
Latitude
6.41097°
Longitude
-179.97279°
Altitude
2,420.496 km
Speed
6.462 km/s
True Right ascension
04h 08m 08s
True Declination
6° 22' 48"
Sunlit
Object was in full shadow at epoch
Visualization orbit readout
Latitude
Unknown
Longitude
Unknown
Altitude
Unknown
Speed
Unknown
Apparent Right ascension
Unknown
Apparent Declination
Unknown
Sunlit
N/A
Visualization observer readout
Local Sidereal Time
20:31:04
Azimuth
Unknown
Elevation
Unknown
Doppler factor
Unknown
Orbital elements
Apogee altitude
2,418.167 km
Perigee altitude
1,133.939 km
Semi-major axis
8,154.19 km
Eccentricity
0.07875
Inclination
69.2321°
RAAN
244.4659°
Arg. of periapsis
350.14°
True anomaly
182.93986°
Mean anomaly
183.4315°
Eccentric anomaly
183.18113°
Mean motion
2.94762 °/min
Orbital period
122.13 mins
BSTAR
0.00028118
Loading maneuver chart data...
Computing Atmospheric mass density...
Loading historical data...
Loading historical data...
Loading historical data...
Loading historical data...
Loading historical data...
Loading historical data...
Loading historical data...

Documentation

Showing up to 5 results
|